• In Uzbekistan
  • List of Countries
  • For 7 days
  • Water Temperature
  • Satellite Maps
  • Weather Map
  • Weather Widgets
  • user-avatar
    Login

    Hourly Weather Bari

    Today, 24 June, Sunday

    Time Temperature Precipitation Wind Pressure Humidity
    00:00 +44°C° 0 mm 3 mps 731 mmHg 22%
    01:00 +43°C° 0 mm 3 mps 730 mmHg 23%
    02:00 +43°C° 0 mm 3 mps 730 mmHg 24%
    03:00 +42°C° 0 mm 4 mps 730 mmHg 25%
    04:00 +42°C° 0 mm 4 mps 730 mmHg 26%
    05:00 +38°C° 0 mm 2 mps 731 mmHg 35%
    06:00 +40°C° 0.2 mm 2 mps 731 mmHg 32%
    07:00 +41°C° 0.2 mm 2 mps 731 mmHg 29%
    08:00 +42°C° 0.2 mm 2 mps 732 mmHg 27%
    09:00 +43°C° 0 mm 2 mps 731 mmHg 24%
    10:00 +45°C° 0 mm 2 mps 731 mmHg 22%
    11:00 +46°C° 0 mm 2 mps 732 mmHg 23%
    12:00 +46°C° 0.1 mm 2 mps 731 mmHg 22%
    13:00 +46°C° 0.1 mm 2 mps 731 mmHg 22%
    14:00 +46°C° 0.1 mm 2 mps 730 mmHg 21%
    15:00 +46°C° 0 mm 3 mps 730 mmHg 22%
    16:00 +46°C° 0 mm 3 mps 730 mmHg 23%
    17:00 +45°C° 0 mm 3 mps 730 mmHg 24%
    18:00 +45°C° 0.2 mm 3 mps 730 mmHg 25%
    19:00 +44°C° 0.2 mm 3 mps 730 mmHg 26%
    20:00 +44°C° 0.2 mm 3 mps 730 mmHg 27%
    21:00 +43°C° 0.1 mm 4 mps 730 mmHg 27%
    22:00 +43°C° 0.1 mm 4 mps 730 mmHg 28%
    23:00 +43°C° 0.1 mm 4 mps 730 mmHg 28%

    Tomorrow, 25 June, Monday

    Time Temperature Precipitation Wind Pressure Humidity
    00:00 +42°C° 0 mm 4 mps 730 mmHg 29%
    01:00 +42°C° 0 mm 4 mps 730 mmHg 29%
    02:00 +42°C° 0 mm 4 mps 730 mmHg 29%
    03:00 +41°C° 0 mm 5 mps 730 mmHg 30%
    04:00 +41°C° 0 mm 5 mps 730 mmHg 31%
    05:00 +40°C° 0 mm 5 mps 730 mmHg 32%
    06:00 +41°C° 0 mm 6 mps 730 mmHg 32%
    07:00 +41°C° 0 mm 6 mps 730 mmHg 32%
    08:00 +41°C° 0 mm 6 mps 731 mmHg 32%
    09:00 +42°C° 0 mm 6 mps 731 mmHg 30%
    10:00 +45°C° 0 mm 5 mps 731 mmHg 27%
    11:00 +46°C° 0 mm 5 mps 730 mmHg 25%
    12:00 +45°C° 0 mm 4 mps 730 mmHg 24%
    13:00 +47°C° 0 mm 4 mps 730 mmHg 22%
    14:00 +46°C° 0 mm 3 mps 729 mmHg 21%
    15:00 +47°C° 0.3 mm 4 mps 729 mmHg 23%
    16:00 +46°C° 0.3 mm 5 mps 728 mmHg 26%
    17:00 +45°C° 0.3 mm 6 mps 728 mmHg 28%
    18:00 +44°C° 0.2 mm 6 mps 728 mmHg 30%
    19:00 +42°C° 0.2 mm 6 mps 728 mmHg 33%
    20:00 +40°C° 0.2 mm 5 mps 729 mmHg 35%
    21:00 +40°C° 0.2 mm 6 mps 729 mmHg 37%
    22:00 +40°C° 0.2 mm 6 mps 729 mmHg 39%
    23:00 +39°C° 0.2 mm 7 mps 729 mmHg 41%

    Day after tomorrow, 26 June, Tuesday

    Time Temperature Precipitation Wind Pressure Humidity
    00:00 +38°C° 0 mm 7 mps 729 mmHg 44%
    01:00 +38°C° 0 mm 8 mps 729 mmHg 48%
    02:00 +37°C° 0 mm 8 mps 729 mmHg 51%
    03:00 +36°C° 0 mm 7 mps 729 mmHg 50%
    04:00 +36°C° 0 mm 6 mps 729 mmHg 49%
    05:00 +36°C° 0 mm 5 mps 729 mmHg 48%
    06:00 +36°C° 0 mm 5 mps 729 mmHg 47%
    07:00 +37°C° 0 mm 5 mps 730 mmHg 45%
    08:00 +37°C° 0 mm 5 mps 730 mmHg 44%
    09:00 +40°C° 0 mm 5 mps 730 mmHg 40%
    10:00 +41°C° 0 mm 4 mps 730 mmHg 36%
    11:00 +43°C° 0 mm 4 mps 730 mmHg 32%
    12:00 +44°C° 0 mm 4 mps 730 mmHg 30%
    13:00 +44°C° 0 mm 3 mps 729 mmHg 27%
    14:00 +45°C° 0 mm 3 mps 729 mmHg 25%
    15:00 +45°C° 0 mm 3 mps 729 mmHg 25%
    16:00 +45°C° 0 mm 2 mps 728 mmHg 25%
    17:00 +43°C° 0 mm 2 mps 728 mmHg 26%
    18:00 +44°C° 0 mm 3 mps 728 mmHg 27%
    19:00 +43°C° 0 mm 4 mps 729 mmHg 29%
    20:00 +42°C° 0 mm 4 mps 729 mmHg 31%
    21:00 +41°C° 0 mm 5 mps 729 mmHg 34%
    22:00 +41°C° 0 mm 5 mps 729 mmHg 37%
    23:00 +40°C° 0 mm 5 mps 730 mmHg 40%

    27 June, Wednesday

    Time Temperature Precipitation Wind Pressure Humidity
    00:00 +39°C° 0.1 mm 6 mps 730 mmHg 43%
    01:00 +38°C° 0.1 mm 7 mps 729 mmHg 45%
    02:00 +36°C° 0.1 mm 7 mps 729 mmHg 48%
    03:00 +36°C° 0.2 mm 6 mps 729 mmHg 49%
    04:00 +35°C° 0.2 mm 5 mps 729 mmHg 50%
    05:00 +35°C° 0.2 mm 4 mps 729 mmHg 51%
    06:00 +36°C° 0.1 mm 4 mps 730 mmHg 48%
    07:00 +37°C° 0.1 mm 4 mps 731 mmHg 45%
    08:00 +38°C° 0.1 mm 4 mps 731 mmHg 42%
    09:00 +41°C° 0 mm 4 mps 731 mmHg 39%
    10:00 +42°C° 0 mm 4 mps 731 mmHg 36%
    11:00 +43°C° 0 mm 4 mps 731 mmHg 33%
    12:00 +43°C° 0 mm 3 mps 731 mmHg 32%
    13:00 +43°C° 0 mm 3 mps 730 mmHg 31%
    14:00 +43°C° 0 mm 2 mps 729 mmHg 30%
    15:00 +42°C° 0.3 mm 2 mps 729 mmHg 31%
    16:00 +43°C° 0.3 mm 3 mps 729 mmHg 32%
    17:00 +42°C° 0.3 mm 3 mps 729 mmHg 33%
    18:00 +42°C° 0 mm 3 mps 729 mmHg 34%
    19:00 +42°C° 0 mm 3 mps 730 mmHg 35%
    20:00 +40°C° 0 mm 3 mps 730 mmHg 36%
    21:00 +40°C° 0.2 mm 3 mps 730 mmHg 37%
    22:00 +40°C° 0.2 mm 3 mps 730 mmHg 38%
    23:00 +39°C° 0.2 mm 3 mps 731 mmHg 38%

    28 June, Thursday

    Time Temperature Precipitation Wind Pressure Humidity
    00:00 +39°C° 0.6 mm 2 mps 730 mmHg 40%
    01:00 +38°C° 0.6 mm 2 mps 730 mmHg 41%
    02:00 +38°C° 0.6 mm 2 mps 730 mmHg 43%
    03:00 +38°C° 0.2 mm 2 mps 730 mmHg 44%
    04:00 +37°C° 0.2 mm 3 mps 730 mmHg 46%
    05:00 +37°C° 0.2 mm 3 mps 731 mmHg 47%
    06:00 +37°C° 0.2 mm 4 mps 731 mmHg 48%
    07:00 +37°C° 0.2 mm 4 mps 732 mmHg 50%
    08:00 +37°C° 0.2 mm 5 mps 732 mmHg 51%
    09:00 +39°C° 0.1 mm 5 mps 732 mmHg 48%
    10:00 +40°C° 0.1 mm 5 mps 732 mmHg 45%
    11:00 +41°C° 0.1 mm 5 mps 732 mmHg 41%
    12:00 +41°C° 0 mm 4 mps 731 mmHg 41%
    13:00 +41°C° 0 mm 4 mps 731 mmHg 40%
    14:00 +42°C° 0 mm 4 mps 730 mmHg 39%
    15:00 +40°C° 6.7 mm 5 mps 730 mmHg 49%
    16:00 +36°C° 6.7 mm 5 mps 729 mmHg 59%
    17:00 +34°C° 6.7 mm 5 mps 729 mmHg 70%
    18:00 +34°C° 7.4 mm 5 mps 730 mmHg 69%
    19:00 +34°C° 7.4 mm 4 mps 731 mmHg 69%
    20:00 +34°C° 7.4 mm 3 mps 731 mmHg 69%
    21:00 +34°C° 1.8 mm 3 mps 732 mmHg 69%
    22:00 +34°C° 1.8 mm 3 mps 732 mmHg 69%
    23:00 +34°C° 1.8 mm 3 mps 732 mmHg 69%

    29 June, Friday

    Time Temperature Precipitation Wind Pressure Humidity
    00:00 +34°C° 1 mm 3 mps 731 mmHg 69%
    01:00 +34°C° 1 mm 2 mps 731 mmHg 69%
    02:00 +34°C° 1 mm 2 mps 731 mmHg 69%
    03:00 +34°C° 1.5 mm 2 mps 731 mmHg 69%
    04:00 +32°C° 1.5 mm 2 mps 730 mmHg 69%
    05:00 +32°C° 1.5 mm 2 mps 730 mmHg 69%
    06:00 +35°C° 1.1 mm 2 mps 731 mmHg 63%
    07:00 +36°C° 1.1 mm 3 mps 731 mmHg 57%
    08:00 +37°C° 1.1 mm 3 mps 731 mmHg 51%
    09:00 +38°C° 0 mm 3 mps 731 mmHg 48%
    10:00 +39°C° 0 mm 3 mps 731 mmHg 44%
    11:00 +40°C° 0 mm 3 mps 731 mmHg 41%
    12:00 +40°C° 0 mm 3 mps 730 mmHg 41%
    13:00 +40°C° 0 mm 3 mps 730 mmHg 41%
    14:00 +40°C° 0 mm 3 mps 729 mmHg 41%
    15:00 +40°C° 0 mm 3 mps 729 mmHg 42%
    16:00 +39°C° 0 mm 2 mps 729 mmHg 43%
    17:00 +39°C° 0 mm 2 mps 729 mmHg 43%
    18:00 +39°C° 0 mm 2 mps 729 mmHg 45%
    19:00 +39°C° 0 mm 2 mps 729 mmHg 47%
    20:00 +37°C° 0 mm 1 mps 730 mmHg 49%
    21:00 +37°C° 0 mm 1 mps 730 mmHg 50%
    22:00 +37°C° 0 mm 1 mps 730 mmHg 51%
    23:00 +36°C° 0 mm 1 mps 730 mmHg 52%
    Show more